Simultaneous Nadir Overpasses (SNOs) Predictions

Prediction of SNOs between GOES-17 and METOP-B Satellite Orbit:

Table of predicted SNOs for the next 14.0 days since TLE Epoch: 5/27/2023
Index Date Time (GOES-17) GOES-17 Lat,Lon METOP-B Lat,Lon Distance(km) Time Diff (sec)
1 05/28/2023 16:36:40 -0.00,-104.73 0.53,-106.99 258.28 80
2 05/29/2023 16:18:41 -0.00,-104.73 -0.63,-102.01 310.84 80
3 05/31/2023 04:37:42 0.01,-104.70 -0.41,-106.61 217.07 80
4 06/01/2023 04:14:22 0.01,-104.70 0.70,-101.61 351.69 80
5 06/02/2023 16:33:13 -0.01,-104.73 0.34,-106.18 165.04 80
6 06/03/2023 16:15:15 -0.01,-104.73 -0.83,-101.19 403.70 80
7 06/05/2023 04:34:15 0.01,-104.69 -0.21,-105.79 124.82 80
8 06/06/2023 04:10:56 0.01,-104.69 0.91,-100.80 443.48 80
9 06/07/2023 16:29:47 -0.01,-104.71 0.12,-105.36 74.05 80
10 06/08/2023 16:11:48 -0.01,-104.71 -0.99,-100.37 494.56 80
